Location: Carnoy
(49.9849°N, 2.7558°E)
Time: 13:45:12
(UTC+00:00)

Daily predictions for brighter satellites

Satellite Brightness Start Highest point End
(mag) Time Altitude Azimuth Time Altitude Azimuth Time Altitude Azimuth
SJ 16-02 3.5 16:55:30 10° WSW 16:58:56 22° NW 17:02:23 10° N
Starlink M 3.1 16:57:38 10° W 17:00:46 63° NNW 17:03:55 10° ENE
Cosmos 1607 4.0 16:54:48 10° SW 17:00:57 87° NW 17:07:11 10° NE
Cosmos 1300 2.6 16:57:52 10° N 17:01:43 80° E 17:05:31 10° SSE
Cosmos 494 Rocket 4.0 16:58:01 10° NNW 17:03:11 86° ENE 17:08:19 10° SSE
CZ-4B R/B 4.4 16:57:58 10° S 17:03:28 51° W 17:09:00 10° NNW
Cosmos 2237 Rocket 2.2 16:58:27 10° NNW 17:04:07 75° ENE 17:09:44 10° SE
Okean O Rocket 3.0 17:00:02 10° S 17:04:18 45° W 17:08:36 10° NNW
ATLAS CENTAUR R/B 3.8 17:00:02 10° WSW 17:05:14 80° NNW 17:20:10 10° ENE
Nadezhda 3 Rocket 4.0 16:58:57 10° N 17:05:16 74° E 17:11:35 10° SSE
Starlink AR 2.8 17:03:52 10° W 17:06:23 49° NNW 17:08:55 10° ENE
PSLV R/B 3.9 17:02:42 10° NNE 17:06:47 65° ESE 17:10:51 10° S
SMAP 3.1 17:03:06 10° SSE 17:07:46 87° ENE 17:12:27 10° NNW
NOSS 2-1 (C) 4.3 17:02:56 10° NW 17:07:57 72° NE 17:14:58 10° SE
Okean-O 2.9 17:04:51 10° SE 17:09:06 47° ENE 17:13:22 10° N
COBE Rocket 4.2 17:05:59 10° N 17:11:09 80° WNW 17:16:20 10° SSW
ATLAS 5 CENTAUR R/B 3.0 17:07:19 10° W 17:11:19 32° NNW 17:15:51 10° NE
Helios 1A Rocket 4.3 17:07:50 10° S 17:11:42 44° W 17:15:37 10° NNW
NOSS 2-1 (D) 4.3 17:06:44 10° NW 17:11:47 76° NE 17:18:53 10° SE
Starlink AS 3.1 17:09:45 10° W 17:12:38 54° NNW 17:15:26 11° ENE
CSL-04 Rocket 4.5 17:08:10 10° ESE 17:12:53 30° ENE 17:17:39 10° N
Starlink BA 3.1 17:10:08 10° W 17:13:01 53° NNW 17:15:49 11° ENE
Starlink AU 3.1 17:10:22 10° W 17:13:15 53° NNW 17:16:02 11° ENE
Starlink AT 3.1 17:10:35 10° W 17:13:28 53° NNW 17:16:14 11° ENE
Starlink BB 3.1 17:10:48 10° W 17:13:41 53° NNW 17:16:27 11° ENE
Starlink BC 3.1 17:11:02 10° W 17:13:55 53° NNW 17:16:41 11° ENE
Starlink BK 3.1 17:11:16 10° W 17:14:09 53° NNW 17:16:54 11° ENE
Starlink AY 3.1 17:11:30 10° W 17:14:23 53° NNW 17:17:07 11° ENE
Starlink AW 3.1 17:11:43 10° W 17:14:36 53° NNW 17:17:19 11° ENE
Shenzhou-11 Module 4.4 17:14:00 10° S 17:14:40 11° SSE 17:15:19 10° SSE
Cosmos 2333 Rocket 3.9 17:09:28 10° NW 17:14:43 38° WSW 17:19:54 10° S
Starlink BJ 3.1 17:11:57 10° W 17:14:50 53° NNW 17:17:33 11° ENE
Starlink AV 3.1 17:12:10 10° W 17:15:03 53° NNW 17:17:45 11° ENE
Starlink BD 3.1 17:12:23 10° W 17:15:15 52° NNW 17:17:58 11° ENE
Starlink BE 3.1 17:12:35 10° W 17:15:29 53° NNW 17:18:12 11° ENE
Cosmos 1455 3.2 17:12:18 10° NNE 17:15:33 26° ENE 17:18:47 10° SE
Starlink BM 3.1 17:12:50 10° W 17:15:43 52° NNW 17:18:24 11° ENE
Starlink AQ 3.1 17:12:49 10° W 17:15:43 53° NNW 17:18:26 11° ENE
Starlink AX 3.1 17:13:06 10° W 17:15:58 52° NNW 17:18:38 12° ENE
Starlink BH 3.1 17:13:19 10° W 17:16:11 52° N 17:18:51 12° ENE
Starlink AZ 3.1 17:13:31 10° W 17:16:24 52° NNW 17:19:03 12° ENE
Cosmos 1689 Rocket 3.7 17:13:41 10° N 17:16:25 35° WNW 17:19:08 10° SW
Starlink BG 3.1 17:13:44 10° W 17:16:37 52° NNW 17:19:16 12° ENE
Starlink BF 3.1 17:13:59 10° W 17:16:51 52° NNW 17:19:30 12° ENE
Starlink BL 3.1 17:14:11 10° W 17:17:04 52° NNW 17:19:44 12° ENE
CZ-4C R/B 3.8 17:10:10 10° NW 17:17:10 56° WSW 17:25:07 10° SSE
Starlink AH 3.1 17:14:26 10° W 17:17:18 52° N 17:19:55 12° ENE
Starlink AC 3.1 17:14:40 10° W 17:17:32 52° NNW 17:20:09 12° ENE
Starlink X 3.1 17:14:53 10° W 17:17:46 52° NNW 17:20:22 12° ENE
Starlink AE 3.1 17:15:04 10° W 17:17:58 52° N 17:20:36 12° ENE
Ariane Rocket 4.5 17:14:56 10° E 17:18:00 16° NE 17:21:03 10° NNE
Starlink Z 3.1 17:15:19 10° W 17:18:12 51° N 17:20:47 12° ENE
Starlink AK 3.1 17:15:26 10° W 17:18:19 51° N 17:20:53 12° ENE
Starlink AL 3.1 17:15:47 10° W 17:18:40 51° N 17:21:14 12° ENE
Starlink AD 3.1 17:15:53 10° W 17:18:45 51° NNW 17:21:19 12° ENE
ATLAS 5 CENTAUR R/B 3.6 17:15:38 10° NW 17:18:48 29° NNE 17:26:43 10° E
Starlink Y 3.1 17:16:28 10° W 17:19:21 51° N 17:21:53 13° ENE
Starlink AG 3.1 17:16:42 10° W 17:19:35 51° N 17:22:06 13° ENE
Starlink W 3.1 17:16:46 10° W 17:19:39 51° NNW 17:22:12 13° ENE
Starlink AJ 3.1 17:17:08 10° W 17:20:01 51° N 17:22:31 13° ENE
Starlink AM 3.1 17:17:35 10° W 17:20:27 51° N 17:22:56 13° ENE
Starlink AP 3.1 17:17:47 10° W 17:20:39 51° N 17:23:09 13° ENE
Starlink AA 3.1 17:18:02 10° W 17:20:54 50° N 17:23:22 13° ENE
Starlink AF 3.1 17:18:16 10° W 17:21:07 50° N 17:23:35 13° ENE
Starlink AB 3.1 17:18:29 10° W 17:21:22 50° N 17:23:49 13° ENE
Starlink AN 3.1 17:18:43 10° W 17:21:36 50° N 17:24:03 13° ENE
Cosmos 2221 4.3 17:22:20 10° NE 17:24:11 12° ENE 17:25:05 12° ENE
SKYMED 2 4.3 17:21:31 10° NNE 17:25:26 32° E 17:29:20 10° SSE
CORIOLIS 4.3 17:20:10 10° SSE 17:25:33 80° WSW 17:30:56 10° NNW
SL-8 Rocket 4.5 17:20:19 10° SSE 17:26:06 39° E 17:31:51 10° NNE
USA 234 3.8 17:20:53 10° SE 17:27:21 65° SW 17:33:52 10° WNW
ISS -2.3 17:24:47 10° SSW 17:27:39 26° SE 17:30:00 13° E
SL-16 R/B 2.4 17:22:19 10° NNW 17:27:51 49° NE 17:33:20 10° SE
ATLAS CENTAUR R/B 2.1 17:25:01 10° NNW 17:28:48 32° NE 17:32:08 11° E
Cosmos 1271 Rocket 4.0 17:26:34 10° SW 17:30:08 41° WNW 17:33:45 10° N
Cosmos-2242 3.1 17:27:15 10° N 17:31:30 50° ENE 17:35:40 10° SSE
CZ-4 R/B 1.8 17:28:37 10° SE 17:32:27 41° ENE 17:36:24 10° N
Timation 2 Rocket 4.4 17:27:00 10° SW 17:33:06 66° NW 17:39:32 10° NNE
Cosmos 1812 Rocket 4.1 17:28:48 10° NNW 17:33:15 66° W 17:37:41 10° S
Cosmos 2219 3.2 17:31:35 10° SSW 17:37:10 74° ESE 17:42:50 10° NNE
Cosmos 2082 4.4 17:33:26 10° SSE 17:38:21 32° ESE 17:42:52 12° NE
Cosmos 2341 Rocket 4.0 17:32:05 10° S 17:38:22 64° E 17:44:38 10° NNE
Iridium 96 3.7 17:41:50 10° N 17:44:08 47° E 17:46:31 10° SSE
YAOGAN 1 2.8 17:40:26 10° SE 17:44:33 45° ENE 17:48:42 10° N
Cosmos 2297 Rocket 2.2 17:40:26 10° SSW 17:45:59 63° ESE 17:51:36 10° NE
Cosmos 2251 Rocket 3.6 17:43:45 10° NNW 17:48:57 53° ENE 17:54:09 10° SE
Cosmos 1340 Rocket 4.4 17:46:14 10° NNW 17:49:56 38° W 17:53:39 10° SSW
H-2A R/B 3.4 17:49:40 17° ENE 17:50:03 17° NE 17:53:19 10° NNE
ADEOS Rocket 4.1 17:45:45 10° NE 17:51:23 28° E 17:57:24 10° SSE
Cosmos 1328 4.3 17:47:54 10° SSE 17:51:36 36° E 17:55:19 10° NNE
Meteor 1-21 Rocket 4.2 17:46:17 10° S 17:51:52 75° E 17:57:37 10° NNE
Starlink T 3.4 17:49:19 10° W 17:52:19 46° N 17:53:41 26° NE
Meteor 2-10 Rocket 3.4 17:48:23 10° N 17:53:44 70° ENE 17:58:50 10° SSE
Cosmos 1356 Rocket 3.9 17:50:04 10° N 17:53:46 34° ENE 17:57:30 10° SE
Starlink N 3.4 17:51:00 10° W 17:54:00 46° N 17:55:18 27° NE
Starlink Q 3.4 17:52:58 10° W 17:55:57 46° N 17:57:11 28° NE
ERBS 2.2 17:53:46 10° WSW 17:57:07 84° NNW 17:58:46 27° NE
SL-8 R/B 4.4 17:52:42 10° SW 17:57:12 41° SSE 17:59:55 21° E
Starlink P 3.4 17:54:44 10° WNW 17:57:45 45° N 17:58:54 29° NE
CZ-4 R/B 4.3 17:54:41 10° SSE 17:58:48 86° ENE 18:02:58 10° NNW
Cosmos 2227 Rocket 2.2 17:53:14 10° SSW 17:58:50 71° ESE 18:04:16 11° NNE
Starlink U 3.4 17:56:31 10° WNW 17:59:31 45° N 18:00:36 31° NE
USA 32 4.1 17:54:33 10° S 17:59:47 86° W 18:05:04 10° N
Cosmos 1339 Rocket 4.4 17:54:22 10° N 18:00:29 74° E 18:06:37 10° SSE
FengYun 1-2 T 4.4 17:55:20 10° SSE 18:00:59 79° WSW 18:06:42 10° NNW
NOAA 11 4.2 17:55:37 10° SSE 18:01:01 63° ENE 18:06:27 10° N
Starlink B 3.4 17:58:18 10° WNW 18:01:19 45° N 18:02:20 32° NE
ARGOS 4.3 18:02:01 21° ENE 18:02:17 21° NE 18:06:10 10° N
Cosmos 724 4.4 17:59:13 10° SW 18:05:11 81° NW 18:10:12 15° NE
Cosmos 2218 Rocket 4.0 17:59:00 10° S 18:05:15 63° E 18:11:34 10° NNE
Starlink D 3.4 18:09:20 10° WNW 18:12:22 45° N 18:12:57 39° NE
Envisat 4.3 18:08:14 10° S 18:13:03 43° W 18:17:54 10° NNW
Cosmos 1943 4.0 18:08:08 10° NNW 18:13:07 31° NE 18:14:37 27° ENE
COSMO-SKYMED 1 2.5 18:09:20 10° NNE 18:13:42 88° WNW 18:18:03 10° SSW
Starlink S 3.4 18:11:13 10° WNW 18:14:15 45° N 18:14:46 41° NNE
Cosmos 1953 Rocket 3.5 18:10:35 10° S 18:15:04 81° E 18:19:35 10° NNE
Starlink C 3.4 18:13:02 10° WNW 18:16:05 45° N 18:16:31 42° NNE
Cosmos 1842 Rocket 3.8 18:12:50 10° N 18:17:10 46° ENE 18:21:28 10° SSE
Starlink E 3.3 18:14:56 10° WNW 18:17:59 45° N 18:18:20 43° NNE
Cosmos 1758 Rocket 4.2 18:15:26 10° SSW 18:19:40 56° WNW 18:23:56 10° N
Starlink J 3.3 18:16:50 10° WNW 18:19:53 45° N 18:20:09 44° NNE
Starlink V 3.3 18:18:42 10° WNW 18:21:46 46° N 18:21:57 45° NNE
Cosmos 1959 Rocket 4.3 18:15:38 10° S 18:21:46 79° E 18:27:54 10° NNE
YAOGAN 6 4.4 18:19:29 10° SSW 18:22:52 34° W 18:26:15 10° NNW
Starlink H 3.4 18:20:36 10° WNW 18:23:40 46° N 18:23:47 45° N
Cosmos 1703 3.1 18:21:29 10° S 18:25:26 82° E 18:28:43 15° NNE
Starlink F 3.4 18:22:31 10° WNW 18:25:35 46° N 18:25:37 46° N
Cosmos 44 2.9 18:21:05 10° SSW 18:25:39 75° SE 18:27:20 37° NE
Starlink G 3.4 18:24:25 10° WNW 18:27:27 46° N 18:27:27 46° N
Starlink L 3.4 18:26:18 10° WNW 18:29:16 46° N 18:29:16 46° N
CSL-04 Debris 4.3 18:24:20 10° SSE 18:29:43 77° WSW 18:35:10 10° NNW
Starlink A 3.5 18:28:13 10° WNW 18:31:07 46° N 18:31:07 46° N
Cosmos 1939 Rocket 2.8 18:27:44 10° SSE 18:31:40 83° WSW 18:35:42 10° NNW
CZ-2C R/B 4.1 18:32:42 30° NE 18:32:42 30° NE 18:37:00 10° N
Cosmos 407 Rocket 4.0 18:27:21 10° NNW 18:32:16 37° NE 18:32:31 36° ENE
Starlink R 3.5 18:30:09 10° WNW 18:32:58 45° NNW 18:32:58 45° NNW
USA 267 3.5 18:30:18 25° NE 18:34:11 61° NNW 18:40:37 10° W
Starlink K 3.6 18:32:03 10° WNW 18:34:47 45° NNW 18:34:47 45° NNW
BREEZE-M DEB (TANK) 3.2 18:33:30 10° SW 18:35:08 37° SSW 18:35:08 37° SSW
Cosmos 2366 rocket 4.0 18:30:11 10° S 18:36:25 86° W 18:42:46 10° N
Starlink M 3.7 18:33:55 10° WNW 18:36:35 44° NNW 18:36:35 44° NNW
Meteor 2-12 Rocket 4.4 18:33:21 10° S 18:39:16 60° E 18:45:13 10° NNE
BREEZE-M DEB (TANK) 4.3 18:21:55 10° W 18:40:57 87° S 18:43:09 40° E
Starlink AS 4.4 18:45:12 10° WNW 18:46:58 30° NW 18:46:58 30° NW
Starlink BA 4.5 18:45:36 10° WNW 18:47:21 29° NW 18:47:21 29° NW
Starlink AU 4.5 18:45:50 10° WNW 18:47:34 29° NW 18:47:34 29° NW
Starlink AT 4.5 18:46:02 10° WNW 18:47:46 29° NW 18:47:46 29° NW
Starlink BB 4.5 18:46:16 10° WNW 18:47:59 29° NW 18:47:59 29° NW
Cosmos 1455 4.3 18:47:52 10° NNW 18:51:10 28° W 18:54:26 10° SSW
USA 116 4.0 18:52:53 49° W 18:52:53 49° W 18:55:34 10° SSW
CSL-04 Rocket 4.5 18:47:34 10° S 18:52:57 53° W 18:58:24 10° NNW
CZ-2D R/B 4.3 18:49:49 10° S 18:53:31 46° W 18:57:15 10° NNW
Ariane Rocket 2.9 18:51:10 10° SSE 18:56:14 86° ENE 19:01:22 10° NNW
ATLAS 5 CENTAUR R/B 3.8 18:54:04 10° NW 18:57:31 19° N 18:58:33 18° NNE
Cosmos 1727 Rocket 4.4 18:55:46 10° NNW 19:01:53 63° W 19:07:56 10° S
Cosmos 2221 2.5 18:58:07 10° N 19:02:04 75° NNW 19:02:04 75° NNW
ISS -2.3 19:00:47 10° WSW 19:02:58 37° WSW 19:02:58 37° WSW
CZ-4 R/B 3.9 19:04:27 10° SW 19:07:40 22° W 19:10:57 10° NW
ATLAS CENTAUR R/B 2.4 19:04:00 10° NW 19:07:48 40° WSW 19:08:23 37° SW
SL-16 R/B 3.8 19:06:46 10° NW 19:11:48 33° WSW 19:16:48 10° SSW
Cosmos 2082 4.4 19:16:49 10° SW 19:22:16 50° NW 19:24:47 30° N
Cosmos 1603 3.7 19:19:07 10° NNW 19:24:49 81° WSW 19:25:18 74° S
Cosmos 614 Rocket 4.1 19:20:26 10° NNW 19:25:00 68° NNW 19:25:00 68° NNW
H-2A R/B 2.6 19:30:16 48° NNW 19:30:16 48° NNW 19:33:57 10° NNW
Cosmos 2297 Rocket 3.8 19:25:31 10° WSW 19:30:28 30° NW 19:33:40 18° N
ADEOS Rocket 3.5 19:30:46 10° N 19:37:18 70° WNW 19:44:31 10° SSW
Cosmos 2263 Rocket 4.2 19:35:30 10° SSW 19:36:32 16° S 19:36:32 16° S
ARGOS 3.8 19:43:31 48° NNW 19:43:31 48° NNW 19:47:23 10° NNW
Cosmos 2227 Rocket 3.9 19:38:39 10° WSW 19:43:27 27° NW 19:46:07 19° N
Cosmos 1821 Rocket 4.2 19:38:12 10° SSW 19:44:32 68° WNW 19:50:50 10° N
Cosmos 1943 3.9 19:51:59 10° NW 19:56:29 51° WNW 19:56:29 51° WNW
NOSS 3-3 (A) 4.4 19:54:32 10° NW 20:01:53 84° WSW 20:01:53 84° WSW
NOSS 3-3 (C) 4.4 19:54:38 10° NW 20:01:57 84° WSW 20:01:57 84° WSW
BREEZE-M DEB (TANK) 4.4 19:38:14 10° WNW 20:04:43 70° SSW 20:05:42 65° S
Cosmos 2123 Rocket 4.5 20:01:16 10° NNW 20:06:51 57° WNW 20:06:51 57° WNW
USA 267 4.0 20:17:39 45° NNW 20:17:39 45° NNW 20:22:56 10° WNW
